Change the Weather History Date:

Saturday, March 24, 2012

  Actual Average Record
Temperature  
Mean Temperature 56 °F -  
Max Temperature 77 °F 53 °F 80 °F (2004)
Min Temperature 36 °F 28 °F 6 °F (2006)
Degree Days  
Heating Degree Days 8    
Growing Degree Days 6 (Base 50)    
Moisture  
Dew Point 43 °F    
Average Humidity 64    
Maximum Humidity 92    
Minimum Humidity 32    
Precipitation  
Precipitation 0.00 in - - ()
Sea Level Pressure  
Sea Level Pressure 29.99 in    
Wind  
Wind Speed 4 mph (NNE)    
Max Wind Speed 17 mph    
Max Gust Speed 22 mph    
Visibility 10 miles    
Events      
Averages and records for this station are not official NWS values.
T = Trace of Precipitation, MM = Missing Value Source: NWS Daily Summary

Daily Weather History Graph

Daily Weather History Graph

Search for Another Location

Airport or City:

Trip Planner

Search our weather history database for the weather conditions in past years. The results will help you decide how hot, cold, wet, or windy it might be!

Date:

Astronomy

Mar. 24, 2012 Rise Set
Actual Time 7:34 AM CDT 7:56 PM CDT
Civil Twilight 7:07 AM CDT 8:23 PM CDT
Nautical Twilight 6:35 AM CDT 8:55 PM CDT
Astronomical Twilight 6:02 AM CDT 9:28 PM CDT
Moon 8:13 AM CDT (3/24) 10:18 PM CDT (3/24)
Length of Visible Light 13h 15m
Length of Day
12h 21m
Waxing Crescent, 4% of the Moon is Illuminated
Mar 24
Waxing Crescent
Mar 30
First Quarter
Apr 6
Full
Apr 13
Last Quarter
Apr 21
New

Hourly Weather History & Observations

Time (CDT) Temp. Windchill Dew Point Humidity Pressure Visibility Wind Dir Wind Speed Gust Speed Precip Events Conditions
12:15 AM 43.5 °F 41.9 °F 35.1 °F 72% 29.97 in 10.0 mi ESE 3.5 mph - N/A   Clear
12:35 AM 46.0 °F 43.9 °F 36.1 °F 68% 29.97 in 10.0 mi SE 4.6 mph - N/A   Clear
12:55 AM 47.5 °F - 36.3 °F 65% 29.97 in 10.0 mi SE 3.5 mph - N/A   Clear
1:15 AM 44.8 °F 43.3 °F 36.1 °F 72% 29.97 in 10.0 mi SSE 3.5 mph - N/A   Clear
1:35 AM 45.7 °F 44.4 °F 35.8 °F 68% 29.97 in 10.0 mi SSE 3.5 mph - N/A   Clear
1:55 AM 44.1 °F 42.5 °F 35.6 °F 72% 29.98 in 10.0 mi SE 3.5 mph - N/A   Clear
2:15 AM 39.2 °F 37.0 °F 33.8 °F 81% 29.98 in 10.0 mi SE 3.5 mph - N/A   Clear
2:35 AM 40.3 °F - 34.9 °F 81% 29.98 in 10.0 mi Calm Calm - N/A   Clear
2:55 AM 39.9 °F - 33.8 °F 79% 29.99 in 10.0 mi Calm Calm - N/A   Clear
3:15 AM 37.4 °F - 33.3 °F 85% 29.99 in 10.0 mi Calm Calm - N/A   Clear
3:35 AM 36.9 °F - 33.1 °F 86% 29.98 in 10.0 mi Calm Calm - N/A   Clear
4:15 AM 37.2 °F - 34.3 °F 89% 29.97 in 10.0 mi Calm Calm - N/A   Clear
4:35 AM 37.2 °F - 34.3 °F 89% 29.97 in 7.0 mi Calm Calm - N/A   Clear
4:55 AM 36.7 °F - 33.6 °F 89% 29.97 in 7.0 mi Calm Calm - N/A   Clear
5:15 AM 36.7 °F - 33.6 °F 89% 29.97 in 10.0 mi Calm Calm - N/A   Clear
5:35 AM 37.0 °F - 33.8 °F 88% 29.97 in 10.0 mi Calm Calm - N/A   Clear
5:55 AM 37.4 °F 34.9 °F 34.5 °F 89% 29.97 in 10.0 mi ENE 3.5 mph - N/A   Clear
6:15 AM 37.2 °F 33.6 °F 34.5 °F 90% 29.97 in 7.0 mi East 4.6 mph - N/A   Clear
6:35 AM 37.4 °F 33.8 °F 34.9 °F 91% 29.97 in 7.0 mi East 4.6 mph - N/A   Clear
6:55 AM 37.4 °F 34.9 °F 34.7 °F 90% 29.97 in 5.0 mi East 3.5 mph - N/A   Clear
7:15 AM 37.6 °F - 35.1 °F 91% 29.97 in 5.0 mi Calm Calm - N/A   Clear
7:35 AM 36.7 °F 34.1 °F 34.3 °F 91% 29.98 in 4.0 mi East 3.5 mph - N/A   Clear
7:55 AM 38.1 °F - 35.4 °F 90% 29.99 in 10.0 mi Calm Calm - N/A   Clear
8:15 AM 39.2 °F - 36.5 °F 90% 29.99 in 10.0 mi Calm Calm - N/A   Clear
8:35 AM 42.6 °F - 40.5 °F 92% 29.99 in 10.0 mi Calm Calm - N/A   Clear
8:55 AM 46.2 °F - 43.5 °F 90% 30.00 in 10.0 mi Calm Calm - N/A   Clear
9:15 AM 50.9 °F - 46.4 °F 85% 30.00 in 10.0 mi Calm Calm - N/A   Clear
9:35 AM 54.5 °F - 47.5 °F 77% 29.99 in 10.0 mi Calm Calm - N/A   Clear
9:55 AM 59.7 °F - 49.6 °F 69% 29.99 in 10.0 mi SSW 8.1 mph - N/A   Clear
10:15 AM 61.7 °F - 49.5 °F 64% 29.99 in 10.0 mi SSW 6.9 mph - N/A   Clear
10:35 AM 63.9 °F - 49.3 °F 59% 30.00 in 10.0 mi WSW 4.6 mph - N/A   Clear
10:55 AM 64.2 °F - 49.3 °F 58% 30.01 in 10.0 mi WNW 10.4 mph - N/A   Clear
11:15 AM 64.6 °F - 50.0 °F 59% 30.00 in 10.0 mi WNW 9.2 mph - N/A   Clear
11:35 AM 65.7 °F - 49.6 °F 56% 29.99 in 10.0 mi WNW 5.8 mph - N/A   Clear
11:55 AM 68.2 °F - 49.5 °F 51% 29.99 in 10.0 mi West 4.6 mph - N/A   Clear
12:15 PM 68.9 °F - 49.6 °F 50% 29.98 in 10.0 mi WSW 5.8 mph - N/A   Clear
12:35 PM 69.6 °F - 48.0 °F 46% 29.99 in 10.0 mi West 4.6 mph - N/A   Clear
12:55 PM 71.4 °F - 48.7 °F 45% 29.99 in 10.0 mi WNW 6.9 mph - N/A   Clear
1:15 PM 72.3 °F - 49.8 °F 45% 29.99 in 10.0 mi NW 5.8 mph - N/A   Clear
1:35 PM 72.3 °F - 45.0 °F 37% 29.99 in 10.0 mi Calm Calm - N/A   Clear
1:55 PM 73.8 °F - 46.9 °F 38% 29.99 in 10.0 mi NW 4.6 mph - N/A   Clear
2:15 PM 74.3 °F - 45.5 °F 36% 29.99 in 10.0 mi NNE 3.5 mph - N/A   Clear
2:35 PM 75.9 °F - 46.9 °F 36% 29.98 in 10.0 mi Calm Calm - N/A   Clear
2:55 PM 76.1 °F - 44.1 °F 32% 29.98 in 10.0 mi Calm Calm - N/A   Clear
3:15 PM 76.6 °F - 44.6 °F 32% 29.98 in 10.0 mi SE 4.6 mph - N/A   Clear
3:35 PM 77.5 °F - 48.4 °F 36% 29.98 in 10.0 mi North 10.4 mph - N/A   Clear
3:55 PM 76.6 °F - 50.5 °F 40% 29.98 in 10.0 mi NNE 17.3 mph - N/A   Clear
4:15 PM 75.0 °F - 50.5 °F 42% 29.98 in 10.0 mi North 16.1 mph - N/A   Clear
4:35 PM 74.3 °F - 50.5 °F 43% 29.99 in 10.0 mi NNE 17.3 mph 21.9 mph N/A   Clear
4:55 PM 73.9 °F - 50.0 °F 43% 29.99 in 10.0 mi NNE 15.0 mph 19.6 mph N/A   Clear
5:15 PM 73.4 °F - 49.5 °F 43% 29.99 in 10.0 mi NNE 16.1 mph - N/A   Clear
5:35 PM 72.7 °F - 48.4 °F 42% 29.99 in 10.0 mi North 16.1 mph 19.6 mph N/A   Clear
5:55 PM 72.3 °F - 48.4 °F 43% 29.99 in 10.0 mi NNE 12.7 mph - N/A   Clear
6:15 PM 71.6 °F - 48.2 °F 43% 30.00 in 10.0 mi NNE 13.8 mph 17.3 mph N/A   Clear
6:35 PM 70.7 °F - 47.8 °F 44% 30.00 in 10.0 mi NNE 12.7 mph - N/A   Clear
6:55 PM 69.6 °F - 47.3 °F 45% 30.00 in 10.0 mi North 13.8 mph - N/A   Clear
7:15 PM 67.8 °F - 47.3 °F 48% 30.02 in 10.0 mi NNE 11.5 mph - N/A   Clear
7:35 PM 65.5 °F - 47.1 °F 51% 30.02 in 10.0 mi NNE 10.4 mph - N/A   Clear
7:55 PM 62.6 °F - 46.9 °F 57% 30.03 in 10.0 mi NNE 9.2 mph - N/A   Clear
8:15 PM 60.4 °F - 46.6 °F 60% 30.04 in 10.0 mi NNE 6.9 mph - N/A   Clear
8:35 PM 58.5 °F - 45.5 °F 62% 30.04 in 10.0 mi NNE 6.9 mph - N/A   Clear
8:55 PM 56.5 °F - 45.5 °F 67% 30.05 in 10.0 mi North 6.9 mph - N/A   Clear
9:15 PM 55.9 °F - 45.5 °F 68% 30.06 in 10.0 mi NNE 4.6 mph - N/A   Clear
9:35 PM 55.4 °F - 45.0 °F 68% 30.07 in 10.0 mi North 5.8 mph - N/A   Clear
9:55 PM 54.5 °F - 45.9 °F 73% 30.08 in 10.0 mi NNE 6.9 mph - N/A   Clear
10:15 PM 52.7 °F - 44.8 °F 74% 30.09 in 10.0 mi North 5.8 mph - N/A   Clear
10:35 PM 52.7 °F - 45.5 °F 76% 30.10 in 10.0 mi NNE 6.9 mph - N/A   Clear
10:55 PM 51.6 °F - 44.8 °F 77% 30.10 in 10.0 mi North 5.8 mph - N/A   Clear
11:15 PM 51.8 °F - 45.5 °F 79% 30.11 in 10.0 mi NNE 9.2 mph - N/A   Clear
11:35 PM 50.9 °F - 45.1 °F 81% 30.11 in 10.0 mi NNE 8.1 mph - N/A   Clear
11:55 PM 50.2 °F - 44.6 °F 81% 30.11 in 10.0 mi NNE 8.1 mph - N/A   Clear